Starlink 30800

operational
NORAD ID: 58206 Int'l Des: 2023-170 Owner: SPXS Country: US Constellation: starlink
LEOCIRCULAR

Über Starlink 30800

Beschreibung wird geladen...

Live-Position

3D-Globus wird geladen...

Nächste Überflüge

Höhenverlauf

Altitude vs Time

uPlot chart will show altitude changes over time

Zweizeiliger Elementsatz

1 58206U 23170A 25258.16866167 .00001311 00000-0 11213-3 0 9994
2 58206 43.0028 69.9028 0001522 264.7927 95.2742 15.02534454103872
Epoch: 15. Sept. 2025 • Age: 10 hours

Aktueller Status

Höhe 560.4 km
Geschwindigkeit 7.59 km/s
Subsatellitenpunkt 29.83°N, 1.93°E
Startdatum 4. Nov. 2023
Alter 1.8 years
Typ internet

Technische Details

Klassifizierung Payload
Masse 730.00 kg
Trockenmasse 700.00 kg
Gesamtmasse 730.00 kg
Länge 0.30 m
Durchmesser 4.10 m
Spannweite 29.00 m
Form Box + pan
Hersteller SPXS
Bus-Typ Starlink V2M
Phasenstatus In Orbit
Besitzer/Staat SPXS/US

Große Konstellationen

Loading constellations...